Dades meteomassalio
Diari Summary for Maig 20, 2017 Units:  English    Metric   Both
« Previous Day
Next Day »
Diari Semanal Mensual Anual Personalitzat
  Maxima: Minima: Mijana:
Temperatura: TemperatureC °F 6.7 °F 16.4 °F
Rosada: DewpointC °F 4.8 °F 6.8 °F
Humitat: Humidity % 30 % 57 %
Velocitat del vent: WindSpeedKMH mph 0.0 mph 4 mph
Racha vent: WindSpeedGustKMH mph - -
Vent:- - WSW
Pressio: PressurehPa in 1021.2 in -
Pluja: 0.0 in    
Historical Graphs
 
 
Tabular Data for Maig 20, 2017
Time Temperature Dew Point Pressure Wind Wind Speed Wind Gust Humidity Rainfall Rate (Hourly) solar Conditions
TemperatureC °F DewpointC °F PressurehPa in Calm     Humidity % HourlyPrecipMM in SolarRadiationWatts/m^2 W/m2 Conditions
00:03 12.0 °F 7.3 °F 1022.2 in Calm     73 % 0.0 in 0.0 W/m2 CLR
00:08 12.1 °F 7.2 °F 1022.6 in Calm     72 % 0.0 in 0.0 W/m2 CLR
00:13 12.0 °F 7.3 °F 1022.6 in Calm     73 % 0.0 in 0.0 W/m2 CLR
00:18 11.8 °F 7.2 °F 1022.6 in Calm     73 % 0.0 in 0.0 W/m2 CLR
00:23 11.6 °F 7.1 °F 1022.6 in Calm     74 % 0.0 in 0.0 W/m2 CLR
00:28 11.4 °F 7.2 °F 1022.6 in Calm     75 % 0.0 in 0.0 W/m2 CLR
00:33 11.3 °F 7.2 °F 1022.6 in Calm     76 % 0.0 in 0.0 W/m2 CLR
00:38 11.2 °F 7.3 °F 1022.6 in Calm     77 % 0.0 in 0.0 W/m2 CLR
00:43 11.1 °F 7.2 °F 1022.6 in Calm     77 % 0.0 in 0.0 W/m2 CLR
00:48 11.1 °F 7.2 °F 1022.9 in Calm     77 % 0.0 in 0.0 W/m2 CLR
00:53 11.0 °F 7.1 °F 1022.9 in Calm     77 % 0.0 in 0.0 W/m2 CLR
00:58 10.9 °F 7.0 °F 1022.6 in Calm     77 % 0.0 in 0.0 W/m2 CLR
01:03 10.8 °F 6.9 °F 1022.9 in Calm     77 % 0.0 in 0.0 W/m2 CLR
01:08 10.8 °F 7.2 °F 1022.9 in Calm     78 % 0.0 in 0.0 W/m2 CLR
01:13 10.8 °F 7.1 °F 1022.9 in Calm     78 % 0.0 in 0.0 W/m2 CLR
01:18 10.7 °F 7.0 °F 1022.9 in Calm     78 % 0.0 in 0.0 W/m2 CLR
01:23 10.6 °F 6.9 °F 1022.9 in Calm     78 % 0.0 in 0.0 W/m2 CLR
01:28 10.6 °F 6.9 °F 1022.9 in Calm     78 % 0.0 in 0.0 W/m2 CLR
01:34 10.6 °F 6.9 °F 1022.9 in Calm     78 % 0.0 in 0.0 W/m2 CLR
01:39 10.4 °F 6.7 °F 1022.9 in Calm     78 % 0.0 in 0.0 W/m2 CLR
01:44 10.2 °F 6.7 °F 1022.9 in Calm     79 % 0.0 in 0.0 W/m2 CLR
01:49 10.1 °F 6.8 °F 1022.9 in Calm     80 % 0.0 in 0.0 W/m2 CLR
01:54 9.9 °F 6.7 °F 1022.9 in Calm     80 % 0.0 in 0.0 W/m2 CLR
01:59 10.0 °F 6.7 °F 1022.9 in Calm     80 % 0.0 in 0.0 W/m2 CLR
02:04 10.1 °F 6.8 °F 1022.9 in Calm     80 % 0.0 in 0.0 W/m2 CLR
02:09 10.0 °F 6.7 °F 1022.9 in Calm     80 % 0.0 in 0.0 W/m2 CLR
02:14 9.9 °F 6.8 °F 1022.9 in Calm     81 % 0.0 in 0.0 W/m2 CLR
02:19 9.8 °F 6.7 °F 1022.9 in Calm     81 % 0.0 in 0.0 W/m2 CLR
02:24 9.8 °F 6.7 °F 1022.9 in Calm     81 % 0.0 in 0.0 W/m2 CLR
02:29 9.7 °F 6.6 °F 1022.9 in Calm     81 % 0.0 in 0.0 W/m2 CLR
02:34 9.6 °F 6.6 °F 1022.9 in Calm     82 % 0.0 in 0.0 W/m2 CLR
02:39 9.4 °F 6.5 °F 1022.9 in Calm     82 % 0.0 in 0.0 W/m2 CLR
02:44 9.4 °F 6.4 °F 1022.9 in Calm     82 % 0.0 in 0.0 W/m2 CLR
02:49 9.4 °F 6.3 °F 1022.9 in Calm     81 % 0.0 in 0.0 W/m2 CLR
02:54 9.3 °F 6.4 °F 1022.9 in Calm     82 % 0.0 in 0.0 W/m2 CLR
02:59 9.3 °F 6.2 °F 1023.2 in Calm     81 % 0.0 in 0.0 W/m2 CLR
03:04 9.3 °F 6.2 °F 1023.2 in Calm     81 % 0.0 in 0.0 W/m2 CLR
03:09 9.2 °F 6.3 °F 1023.2 in Calm     82 % 0.0 in 0.0 W/m2 CLR
03:14 9.2 °F 6.3 °F 1023.2 in Calm     82 % 0.0 in 0.0 W/m2 CLR
03:19 9.2 °F 6.3 °F 1023.2 in Calm     82 % 0.0 in 0.0 W/m2 CLR
03:24 9.1 °F 5.9 °F 1023.2 in Calm     81 % 0.0 in 0.0 W/m2 CLR
03:29 9.0 °F 6.1 °F 1023.2 in Calm     82 % 0.0 in 0.0 W/m2 CLR
03:34 8.9 °F 6.1 °F 1023.2 in Calm     82 % 0.0 in 0.0 W/m2 CLR
03:39 9.1 °F 6.2 °F 1023.2 in Calm     82 % 0.0 in 0.0 W/m2 CLR
03:44 9.2 °F 6.1 °F 1023.2 in Calm     81 % 0.0 in 0.0 W/m2 CLR
03:49 9.2 °F 6.1 °F 1023.2 in Calm     81 % 0.0 in 0.0 W/m2 CLR
03:54 9.1 °F 6.0 °F 1023.2 in Calm     81 % 0.0 in 0.0 W/m2 CLR
04:04 8.9 °F 6.0 °F 1023.2 in Calm     82 % 0.0 in 0.0 W/m2 CLR
04:09 8.8 °F 6.1 °F 1023.2 in Calm     83 % 0.0 in 0.0 W/m2 CLR
04:15 8.6 °F 5.9 °F 1023.2 in Calm     83 % 0.0 in 0.0 W/m2 CLR
04:20 8.4 °F 5.9 °F 1023.2 in Calm     84 % 0.0 in 0.0 W/m2 CLR
04:25 8.4 °F 5.8 °F 1023.2 in Calm     84 % 0.0 in 0.0 W/m2 CLR
04:30 8.3 °F 5.9 °F 1023.6 in Calm     85 % 0.0 in 0.0 W/m2 CLR
04:35 8.2 °F 5.8 °F 1023.6 in Calm     85 % 0.0 in 0.0 W/m2 CLR
04:40 8.1 °F 5.7 °F 1023.6 in Calm     85 % 0.0 in 0.0 W/m2 CLR
04:45 8.1 °F 5.7 °F 1023.6 in Calm     85 % 0.0 in 0.0 W/m2 CLR
04:50 7.9 °F 5.6 °F 1023.6 in Calm     85 % 0.0 in 0.0 W/m2 CLR
04:55 7.9 °F 5.7 °F 1023.6 in Calm     86 % 0.0 in 0.0 W/m2 CLR
05:00 7.8 °F 5.6 °F 1023.6 in Calm     86 % 0.0 in 0.0 W/m2 CLR
05:05 7.7 °F 5.5 °F 1023.6 in Calm     86 % 0.0 in 0.0 W/m2 CLR
05:10 7.6 °F 5.4 °F 1023.6 in Calm     86 % 0.0 in 0.0 W/m2 CLR
05:15 7.5 °F 5.3 °F 1023.6 in Calm     86 % 0.0 in 0.0 W/m2 CLR
05:20 7.4 °F 5.4 °F 1023.9 in Calm     87 % 0.0 in 0.0 W/m2 CLR
05:25 7.4 °F 5.4 °F 1023.9 in Calm     87 % 0.0 in 0.0 W/m2 CLR
05:30 7.4 °F 5.4 °F 1023.9 in Calm     87 % 0.0 in 0.0 W/m2 CLR
05:35 7.3 °F 5.3 °F 1023.9 in Calm     87 % 0.0 in 0.0 W/m2 CLR
05:40 7.3 °F 5.3 °F 1023.9 in Calm     87 % 0.0 in 0.0 W/m2 CLR
05:45 7.3 °F 5.3 °F 1023.9 in Calm     87 % 0.0 in 0.0 W/m2 CLR
05:50 7.3 °F 5.3 °F 1023.9 in Calm     87 % 0.0 in 0.0 W/m2 CLR
05:55 7.2 °F 5.2 °F 1023.9 in Calm     87 % 0.0 in 0.0 W/m2 CLR
06:00 7.1 °F 5.1 °F 1023.9 in Calm     87 % 0.0 in 0.0 W/m2 CLR
06:05 7.0 °F 5.2 °F 1024.3 in Calm     88 % 0.0 in 0.0 W/m2 CLR
06:10 7.1 °F 5.2 °F 1024.3 in Calm     88 % 0.0 in 0.0 W/m2 CLR
06:15 7.1 °F 5.2 °F 1024.3 in Calm     88 % 0.0 in 0.0 W/m2 CLR
06:20 7.1 °F 5.2 °F 1024.3 in Calm     88 % 0.0 in 0.0 W/m2 CLR
06:25 7.1 °F 5.3 °F 1024.3 in Calm     88 % 0.0 in 0.0 W/m2 CLR
06:30 7.0 °F 5.2 °F 1024.3 in Calm     88 % 0.0 in 0.0 W/m2 OVC
06:35 6.9 °F 5.1 °F 1024.3 in Calm     88 % 0.0 in 0.0 W/m2 OVC
06:40 6.8 °F 5.0 °F 1024.3 in Calm     88 % 0.0 in 5.0 W/m2 OVC
06:45 6.8 °F 4.9 °F 1024.3 in Calm     88 % 0.0 in 7.0 W/m2 BKN
06:50 6.7 °F 4.8 °F 1024.6 in Calm     88 % 0.0 in 11.0 W/m2 BKN
06:55 6.7 °F 4.8 °F 1024.6 in Calm     88 % 0.0 in 12.0 W/m2 BKN
07:00 6.7 °F 4.8 °F 1024.6 in Calm     88 % 0.0 in 14.0 W/m2 BKN
07:05 6.7 °F 4.8 °F 1024.6 in Calm     88 % 0.0 in 18.0 W/m2 BKN
07:10 6.7 °F 5.1 °F 1024.6 in Calm     89 % 0.0 in 25.0 W/m2 BKN
07:15 6.8 °F 5.2 °F 1024.6 in Calm     89 % 0.0 in 33.0 W/m2 BKN
07:20 7.0 °F 5.3 °F 1024.6 in Calm     89 % 0.0 in 47.0 W/m2 SCT
07:25 7.2 °F 5.6 °F 1024.6 in Calm     89 % 0.0 in 60.0 W/m2 SCT
07:30 7.4 °F 5.6 °F 1024.6 in Calm     88 % 0.0 in 74.0 W/m2 FEW
07:35 7.6 °F 5.7 °F 1024.6 in Calm     88 % 0.0 in 86.0 W/m2 FEW
07:40 7.8 °F 5.8 °F 1024.6 in Calm     87 % 0.0 in 100.0 W/m2 CLR
07:45 8.2 °F 6.1 °F 1024.6 in Calm     87 % 0.0 in 114.0 W/m2 CLR
07:50 8.6 °F 6.3 °F 1024.6 in Calm     86 % 0.0 in 128.0 W/m2 CLR
07:55 8.9 °F 6.6 °F 1024.6 in Calm     85 % 0.0 in 148.0 W/m2 CLR
08:00 9.4 °F 6.8 °F 1024.9 in Calm     84 % 0.0 in 163.0 W/m2 CLR
08:05 9.8 °F 6.9 °F 1024.9 in Calm     82 % 0.0 in 181.0 W/m2 CLR
08:10 10.3 °F 7.2 °F 1024.9 in Calm     81 % 0.0 in 197.0 W/m2 CLR
08:15 10.8 °F 7.5 °F 1024.9 in Calm     80 % 0.0 in 216.0 W/m2 CLR
08:20 11.3 °F 7.8 °F 1024.9 in Calm     79 % 0.0 in 223.0 W/m2 CLR
08:25 11.7 °F 7.8 °F 1024.9 in Calm     77 % 0.0 in 248.0 W/m2 CLR
08:30 12.3 °F 7.9 °F 1024.9 in Calm     75 % 0.0 in 262.0 W/m2 CLR
08:35 12.7 °F 8.0 °F 1024.9 in West 4.8 mph 4.8 mph 73 % 0.0 in 281.0 W/m2 CLR
08:40 13.1 °F 7.3 °F 1024.9 in West 9.3 mph 9.3 mph 68 % 0.0 in 295.0 W/m2 CLR
08:45 13.4 °F 7.4 °F 1024.9 in WNW 6.4 mph 6.4 mph 67 % 0.0 in 311.0 W/m2 CLR
08:50 13.5 °F 7.1 °F 1024.9 in West 9.3 mph 9.3 mph 65 % 0.0 in 327.0 W/m2 CLR
08:55 13.7 °F 7.2 °F 1024.9 in WNW 8.0 mph 8.0 mph 65 % 0.0 in 345.0 W/m2 CLR
09:00 13.9 °F 7.2 °F 1024.9 in WSW 9.7 mph 9.7 mph 64 % 0.0 in 360.0 W/m2 CLR
09:10 14.1 °F 6.9 °F 1024.9 in West 14.8 mph 14.8 mph 62 % 0.0 in 390.0 W/m2 CLR
09:15 14.2 °F 7.1 °F 1024.9 in WNW 14.5 mph 14.5 mph 62 % 0.0 in 406.0 W/m2 CLR
09:20 14.2 °F 7.1 °F 1024.9 in WSW 13.0 mph 13.0 mph 62 % 0.0 in 424.0 W/m2 CLR
09:25 14.4 °F 7.2 °F 1024.9 in WNW 3.7 mph   62 % 0.0 in 439.0 W/m2 CLR
09:30 14.8 °F 7.3 °F 1024.9 in WSW 11.1 mph 11.1 mph 61 % 0.0 in 455.0 W/m2 CLR
09:35 14.9 °F 7.2 °F 1024.9 in SSW 7.4 mph 7.4 mph 60 % 0.0 in 469.0 W/m2 CLR
09:41 15.1 °F 7.3 °F 1024.9 in SW 9.3 mph 9.3 mph 60 % 0.0 in 487.0 W/m2 CLR
09:46 15.1 °F 7.2 °F 1024.6 in WSW 5.6 mph 5.6 mph 59 % 0.0 in 501.0 W/m2 CLR
09:51 15.2 °F 7.3 °F 1024.9 in WSW 5.6 mph 5.6 mph 59 % 0.0 in 517.0 W/m2 CLR
09:56 15.4 °F 7.2 °F 1024.6 in WSW 5.6 mph 5.6 mph 58 % 0.0 in 531.0 W/m2 CLR
10:01 15.6 °F 7.1 °F 1024.9 in West 5.6 mph   57 % 0.0 in 545.0 W/m2 CLR
10:06 15.9 °F 7.4 °F 1024.6 in West 9.7 mph 9.7 mph 57 % 0.0 in 563.0 W/m2 CLR
10:11 15.9 °F 7.1 °F 1024.6 in SW 5.6 mph 5.6 mph 56 % 0.0 in 577.0 W/m2 CLR
10:16 16.2 °F 7.7 °F 1024.6 in WSW 5.6 mph 5.6 mph 57 % 0.0 in 591.0 W/m2 CLR
10:21 16.5 °F 7.4 °F 1024.6 in WSW 6.4 mph 6.4 mph 55 % 0.0 in 591.0 W/m2 CLR
10:26 16.6 °F 7.2 °F 1024.6 in Calm     54 % 0.0 in 621.0 W/m2 CLR
10:31 16.7 °F 7.1 °F 1024.9 in West 9.3 mph 9.3 mph 53 % 0.0 in 633.0 W/m2 CLR
10:36 16.8 °F 7.7 °F 1024.6 in West 1.9 mph   55 % 0.0 in 613.0 W/m2 CLR
10:41 17.1 °F 7.4 °F 1024.6 in WNW 6.4 mph 6.4 mph 53 % 0.0 in 647.0 W/m2 CLR
10:46 17.3 °F 7.7 °F 1024.6 in NNW 8.0 mph 8.0 mph 53 % 0.0 in 679.0 W/m2 CLR
10:51 17.7 °F 7.7 °F 1024.6 in West 18.5 mph 18.5 mph 52 % 0.0 in 684.0 W/m2 CLR
10:56 17.5 °F 7.2 °F 1024.6 in West 5.6 mph 5.6 mph 51 % 0.0 in 698.0 W/m2 CLR
11:01 17.6 °F 7.3 °F 1024.6 in NW 9.7 mph 9.7 mph 51 % 0.0 in 715.0 W/m2 CLR
11:06 17.7 °F 7.7 °F 1024.6 in WNW 9.3 mph 9.3 mph 52 % 0.0 in 728.0 W/m2 CLR
11:11 17.8 °F 7.3 °F 1024.6 in WSW 11.1 mph 11.1 mph 50 % 0.0 in 733.0 W/m2 CLR
11:16 17.9 °F 7.6 °F 1024.6 in NNW 9.3 mph 9.3 mph 51 % 0.0 in 729.0 W/m2 CLR
11:21 18.1 °F 7.4 °F 1024.6 in North 6.4 mph 6.4 mph 50 % 0.0 in 780.0 W/m2 CLR
11:26 18.3 °F 8.0 °F 1024.6 in WNW 9.3 mph 9.3 mph 51 % 0.0 in 640.0 W/m2 CLR
11:31 18.5 °F 7.6 °F 1024.6 in WNW 5.6 mph 5.6 mph 49 % 0.0 in 814.0 W/m2 CLR
11:36 18.4 °F 7.5 °F 1024.6 in WSW 11.3 mph 11.3 mph 49 % 0.0 in 782.0 W/m2 CLR
11:41 18.5 °F 7.3 °F 1024.6 in Calm     48 % 0.0 in 814.0 W/m2 CLR
11:46 18.7 °F 7.7 °F 1024.6 in WNW 13.0 mph 13.0 mph 49 % 0.0 in 814.0 W/m2 CLR
11:51 18.9 °F 7.9 °F 1024.6 in WNW 9.7 mph 9.7 mph 49 % 0.0 in 840.0 W/m2 CLR
11:56 19.1 °F 7.8 °F 1024.6 in WNW 5.6 mph 5.6 mph 48 % 0.0 in 671.0 W/m2 CLR
12:01 19.3 °F 8.0 °F 1024.6 in NW 9.3 mph 9.3 mph 48 % 0.0 in 874.0 W/m2 CLR
12:06 19.3 °F 7.7 °F 1024.6 in WNW 9.3 mph 9.3 mph 47 % 0.0 in 763.0 W/m2 CLR
12:11 19.2 °F 7.6 °F 1024.6 in NW 13.0 mph 13.0 mph 47 % 0.0 in 657.0 W/m2 CLR
12:16 19.1 °F 7.5 °F 1024.6 in SW 5.6 mph 5.6 mph 47 % 0.0 in 802.0 W/m2 CLR
12:21 19.3 °F 8.1 °F 1024.3 in WNW 9.3 mph 9.3 mph 48 % 0.0 in 896.0 W/m2 CLR
12:26 19.6 °F 6.9 °F 1024.6 in NNW 7.4 mph 7.4 mph 44 % 0.0 in 863.0 W/m2 CLR
12:31 19.6 °F 7.3 °F 1024.3 in NW 9.3 mph 9.3 mph 45 % 0.0 in 837.0 W/m2 CLR
12:36 19.7 °F 7.8 °F 1024.3 in NW 13.0 mph 13.0 mph 46 % 0.0 in 898.0 W/m2 CLR
12:41 20.0 °F 8.0 °F 1024.3 in NW 11.1 mph 11.1 mph 46 % 0.0 in 921.0 W/m2 CLR
12:46 19.9 °F 7.3 °F 1024.3 in Calm     44 % 0.0 in 930.0 W/m2 CLR
12:51 20.0 °F 7.4 °F 1024.3 in SW 1.9 mph 1.9 mph 44 % 0.0 in 896.0 W/m2 CLR
12:56 20.3 °F 7.3 °F 1024.3 in NW 5.6 mph 5.6 mph 43 % 0.0 in 919.0 W/m2 CLR
13:01 20.5 °F 7.8 °F 1024.3 in NNW 13.0 mph 13.0 mph 44 % 0.0 in 932.0 W/m2 CLR
13:06 20.7 °F 7.3 °F 1023.9 in North 9.7 mph 9.7 mph 42 % 0.0 in 939.0 W/m2 CLR
13:11 20.6 °F 6.9 °F 1023.9 in NNW 5.6 mph 5.6 mph 41 % 0.0 in 942.0 W/m2 CLR
13:16 20.7 °F 7.6 °F 1023.9 in West 9.3 mph 9.3 mph 43 % 0.0 in 904.0 W/m2 CLR
13:21 20.7 °F 7.6 °F 1023.9 in NNW 7.4 mph 7.4 mph 43 % 0.0 in 932.0 W/m2 CLR
13:26 21.0 °F 7.6 °F 1023.9 in Calm     42 % 0.0 in 939.0 W/m2 CLR
13:31 21.3 °F 7.6 °F 1023.9 in Calm     41 % 0.0 in 912.0 W/m2 CLR
13:36 21.6 °F 8.2 °F 1023.6 in NNW 13.0 mph 13.0 mph 42 % 0.0 in 967.0 W/m2 CLR
13:41 21.7 °F 7.5 °F 1023.6 in NNW 16.7 mph 16.7 mph 40 % 0.0 in 907.0 W/m2 CLR
13:46 21.4 °F 7.3 °F 1023.6 in NW 9.3 mph 9.3 mph 40 % 0.0 in 904.0 W/m2 CLR
13:51 21.4 °F 7.3 °F 1023.6 in ENE 5.6 mph 5.6 mph 40 % 0.0 in 967.0 W/m2 CLR
13:56 21.5 °F 7.7 °F 1023.6 in ENE 1.9 mph 1.9 mph 41 % 0.0 in 951.0 W/m2 CLR
14:01 21.8 °F 7.2 °F 1023.6 in NNE 5.6 mph 5.6 mph 39 % 0.0 in 942.0 W/m2 CLR
14:06 22.0 °F 7.8 °F 1023.6 in NNW 13.0 mph 13.0 mph 40 % 0.0 in 951.0 W/m2 CLR
14:11 21.8 °F 7.3 °F 1023.2 in North 3.2 mph 3.2 mph 39 % 0.0 in 949.0 W/m2 CLR
14:16 21.9 °F 7.7 °F 1023.2 in NNE 18.5 mph 18.5 mph 40 % 0.0 in 949.0 W/m2 CLR
14:21 21.9 °F 7.7 °F 1023.2 in NE 7.4 mph 7.4 mph 40 % 0.0 in 953.0 W/m2 CLR
14:26 22.0 °F 7.0 °F 1023.2 in North 11.1 mph 11.1 mph 38 % 0.0 in 940.0 W/m2 CLR
14:31 22.1 °F 7.4 °F 1023.2 in NNW 27.8 mph 27.8 mph 39 % 0.0 in 932.0 W/m2 CLR
14:36 22.2 °F 7.6 °F 1023.2 in NNW 12.9 mph 12.9 mph 39 % 0.0 in 939.0 W/m2 CLR
14:41 22.3 °F 6.9 °F 1023.2 in NNE 8.0 mph 8.0 mph 37 % 0.0 in 939.0 W/m2 CLR
14:46 22.3 °F 7.3 °F 1023.2 in NE 5.6 mph 5.6 mph 38 % 0.0 in 933.0 W/m2 CLR
14:51 22.3 °F 6.9 °F 1023.2 in Calm     37 % 0.0 in 930.0 W/m2 CLR
14:56 22.8 °F 7.4 °F 1022.9 in NNE 8.0 mph 8.0 mph 37 % 0.0 in 919.0 W/m2 CLR
15:01 22.8 °F 6.9 °F 1022.9 in North 18.5 mph 18.5 mph 36 % 0.0 in 921.0 W/m2 CLR
15:06 23.1 °F 7.2 °F 1022.9 in WNW 13.0 mph 13.0 mph 36 % 0.0 in 904.0 W/m2 CLR
15:11 23.1 °F 6.8 °F 1022.9 in North 9.7 mph 9.7 mph 35 % 0.0 in 912.0 W/m2 CLR
15:16 23.2 °F 7.3 °F 1022.6 in NNE 14.8 mph 14.8 mph 36 % 0.0 in 905.0 W/m2 CLR
15:21 23.4 °F 7.4 °F 1022.6 in North 24.1 mph 24.1 mph 36 % 0.0 in 904.0 W/m2 CLR
15:26 23.0 °F 6.7 °F 1022.6 in North 18.5 mph 18.5 mph 35 % 0.0 in 888.0 W/m2 CLR
15:31 22.8 °F 6.9 °F 1022.6 in NNW 3.7 mph 3.7 mph 36 % 0.0 in 881.0 W/m2 CLR
15:36 22.9 °F 7.0 °F 1022.6 in NNE 1.9 mph   36 % 0.0 in 874.0 W/m2 CLR
15:41 23.3 °F 6.6 °F 1022.6 in ENE 11.1 mph 11.1 mph 34 % 0.0 in 868.0 W/m2 CLR
15:47 23.2 °F 7.3 °F 1022.6 in NW 7.4 mph 8.7 mph 36 % 0.0 in 858.0 W/m2 CLR
15:52 23.4 °F 7.5 °F 1022.6 in ENE 9.7 mph 9.7 mph 36 % 0.0 in 851.0 W/m2 CLR
15:57 23.5 °F 7.2 °F 1022.6 in North 11.3 mph 11.3 mph 35 % 0.0 in 847.0 W/m2 CLR
16:02 23.4 °F 7.1 °F 1022.6 in NW 9.7 mph 9.7 mph 35 % 0.0 in 835.0 W/m2 CLR
16:07 23.4 °F 6.7 °F 1022.6 in NNW 16.7 mph 16.7 mph 34 % 0.0 in 823.0 W/m2 CLR
16:12 23.4 °F 7.5 °F 1022.2 in WNW 5.6 mph 5.6 mph 36 % 0.0 in 823.0 W/m2 CLR
16:17 23.7 °F 7.3 °F 1022.2 in WNW 9.3 mph 9.3 mph 35 % 0.0 in 814.0 W/m2 CLR
16:22 23.8 °F 7.8 °F 1022.2 in North 13.0 mph 13.0 mph 36 % 0.0 in 770.0 W/m2 CLR
16:27 23.9 °F 7.5 °F 1022.2 in NNW 16.7 mph 16.7 mph 35 % 0.0 in 777.0 W/m2 CLR
16:32 23.8 °F 7.4 °F 1022.2 in North 11.3 mph 11.3 mph 35 % 0.0 in 751.0 W/m2 CLR
16:37 24.1 °F 7.2 °F 1022.2 in North 5.6 mph   34 % 0.0 in 775.0 W/m2 CLR
16:42 24.1 °F 7.6 °F 1021.9 in NNW 5.6 mph 5.6 mph 35 % 0.0 in 677.0 W/m2 CLR
16:47 23.9 °F 7.1 °F 1021.9 in NNW 18.5 mph 18.5 mph 34 % 0.0 in 728.0 W/m2 CLR
16:52 23.8 °F 7.0 °F 1021.9 in North 18.5 mph 18.5 mph 34 % 0.0 in 712.0 W/m2 CLR
16:57 23.8 °F 7.4 °F 1021.9 in North 16.7 mph 16.7 mph 35 % 0.0 in 696.0 W/m2 CLR
17:02 23.8 °F 7.0 °F 1021.9 in Calm     34 % 0.0 in 684.0 W/m2 CLR
17:07 23.9 °F 7.1 °F 1021.9 in NNW 18.5 mph 18.5 mph 34 % 0.0 in 673.0 W/m2 CLR
17:12 23.9 °F 7.6 °F 1021.9 in NW 1.9 mph   35 % 0.0 in 643.0 W/m2 CLR
17:17 24.2 °F 7.3 °F 1021.9 in NE 16.7 mph 16.7 mph 34 % 0.0 in 643.0 W/m2 CLR
17:22 24.2 °F 6.9 °F 1021.6 in Calm     33 % 0.0 in 573.0 W/m2 CLR
17:27 24.3 °F 7.4 °F 1021.6 in Calm   1.6 mph 34 % 0.0 in 643.0 W/m2 CLR
17:32 24.4 °F 7.1 °F 1021.6 in NNW 5.6 mph 5.6 mph 33 % 0.0 in 622.0 W/m2 CLR
17:37 24.7 °F 7.3 °F 1021.6 in NNW 14.8 mph 14.8 mph 33 % 0.0 in 617.0 W/m2 CLR
17:42 24.6 °F 6.8 °F 1021.6 in NNE 22.2 mph 22.2 mph 32 % 0.0 in 575.0 W/m2 CLR
17:47 24.5 °F 6.7 °F 1021.6 in North 16.7 mph 16.7 mph 32 % 0.0 in 592.0 W/m2 CLR
17:52 24.2 °F 6.5 °F 1021.6 in NNE 14.8 mph 14.8 mph 32 % 0.0 in 554.0 W/m2 CLR
17:57 24.2 °F 6.5 °F 1021.6 in North 5.6 mph 5.6 mph 32 % 0.0 in 554.0 W/m2 CLR
18:02 24.4 °F 6.2 °F 1021.6 in North 3.7 mph 3.7 mph 31 % 0.0 in 547.0 W/m2 CLR
18:07 24.6 °F 6.3 °F 1021.6 in NNW 9.3 mph 9.3 mph 31 % 0.0 in 533.0 W/m2 CLR
18:12 24.6 °F 6.8 °F 1021.6 in Calm     32 % 0.0 in 489.0 W/m2 CLR
18:17 24.9 °F 6.7 °F 1021.6 in NNW 5.6 mph 5.6 mph 31 % 0.0 in 483.0 W/m2 CLR
18:22 24.8 °F 6.6 °F 1021.6 in Calm     31 % 0.0 in 480.0 W/m2 CLR
18:27 24.7 °F 5.9 °F 1021.6 in North 22.2 mph 22.2 mph 30 % 0.0 in 464.0 W/m2 CLR
18:32 24.6 °F 5.8 °F 1021.6 in WNW 18.5 mph 18.5 mph 30 % 0.0 in 438.0 W/m2 CLR
18:37 24.5 °F 5.8 °F 1021.2 in North 5.6 mph 5.6 mph 30 % 0.0 in 425.0 W/m2 CLR
18:42 24.6 °F 6.8 °F 1021.2 in NNE 3.7 mph 3.7 mph 32 % 0.0 in 411.0 W/m2 CLR
18:47 24.9 °F 6.1 °F 1021.2 in North 5.6 mph 5.6 mph 30 % 0.0 in 397.0 W/m2 CLR
18:52 24.9 °F 6.1 °F 1021.2 in WNW 13.0 mph 13.0 mph 30 % 0.0 in 380.0 W/m2 CLR
18:57 24.8 °F 6.1 °F 1021.2 in North 7.4 mph 7.4 mph 30 % 0.0 in 367.0 W/m2 CLR
19:02 24.8 °F 6.1 °F 1021.2 in Calm     30 % 0.0 in 350.0 W/m2 CLR
19:07 24.9 °F 6.1 °F 1021.2 in North 9.3 mph 9.3 mph 30 % 0.0 in 338.0 W/m2 CLR
19:12 24.9 °F 6.1 °F 1021.2 in Calm     30 % 0.0 in 318.0 W/m2 CLR
19:17 24.8 °F 6.1 °F 1021.2 in NW 3.7 mph   30 % 0.0 in 306.0 W/m2 CLR
19:18 24.8 °F 6.1 °F 1021.2 in Calm     30 % 0.0 in 301.0 W/m2 CLR
19:23 24.8 °F 6.6 °F 1021.2 in NNW 5.6 mph 5.6 mph 31 % 0.0 in 283.0 W/m2 CLR
19:28 24.8 °F 6.0 °F 1021.2 in Calm     30 % 0.0 in 262.0 W/m2 CLR
19:33 24.8 °F 6.6 °F 1021.2 in North 5.6 mph 5.6 mph 31 % 0.0 in 244.0 W/m2 CLR
19:38 24.8 °F 6.0 °F 1021.2 in Calm     30 % 0.0 in 227.0 W/m2 CLR
19:43 24.8 °F 6.0 °F 1021.2 in Calm     30 % 0.0 in 188.0 W/m2 CLR
19:48 25.0 °F 6.2 °F 1021.2 in Calm     30 % 0.0 in 190.0 W/m2 CLR
19:53 25.4 °F 6.6 °F 1021.2 in Calm     30 % 0.0 in 158.0 W/m2 CLR
19:58 25.3 °F 6.5 °F 1021.2 in NNE 1.9 mph   30 % 0.0 in 153.0 W/m2 CLR
20:03 24.9 °F 6.1 °F 1021.6 in Calm     30 % 0.0 in 113.0 W/m2 CLR
20:08 24.6 °F 6.3 °F 1021.6 in Calm     31 % 0.0 in 121.0 W/m2 CLR
20:13 24.6 °F 6.8 °F 1021.6 in Calm     32 % 0.0 in 97.0 W/m2 CLR
20:18 24.4 °F 6.7 °F 1021.6 in Calm     32 % 0.0 in 97.0 W/m2 CLR
20:23 24.4 °F 6.6 °F 1021.6 in Calm     32 % 0.0 in 79.0 W/m2 FEW
20:28 24.3 °F 6.9 °F 1021.6 in Calm     33 % 0.0 in 51.0 W/m2 SCT
20:33 24.1 °F 6.3 °F 1021.6 in Calm     32 % 0.0 in 37.0 W/m2 BKN
20:34 24.1 °F 6.8 °F 1021.6 in Calm     33 % 0.0 in 37.0 W/m2 BKN
20:39 23.8 °F 7.0 °F 1021.9 in Calm     34 % 0.0 in 40.0 W/m2 BKN
20:44 23.7 °F 6.9 °F 1021.9 in Calm     34 % 0.0 in 28.0 W/m2 BKN
20:49 23.4 °F 6.6 °F 1021.9 in Calm     34 % 0.0 in 19.0 W/m2 BKN
20:54 23.1 °F 6.8 °F 1021.9 in Calm     35 % 0.0 in 16.0 W/m2 BKN
20:59 22.7 °F 6.8 °F 1021.9 in Calm     36 % 0.0 in 11.0 W/m2 BKN
21:04 22.2 °F 6.8 °F 1021.9 in Calm     37 % 0.0 in 9.0 W/m2 BKN
21:09 21.9 °F 6.6 °F 1021.9 in Calm     37 % 0.0 in 5.0 W/m2 BKN
21:14 21.7 °F 6.4 °F 1021.9 in Calm     37 % 0.0 in 0.0 W/m2 OVC
21:19 21.6 °F 6.7 °F 1021.9 in Calm     38 % 0.0 in 0.0 W/m2 OVC
21:24 21.3 °F 7.2 °F 1021.9 in Calm     40 % 0.0 in 0.0 W/m2 OVC
21:29 20.9 °F 7.2 °F 1021.9 in Calm     41 % 0.0 in 0.0 W/m2 CLR
21:34 20.6 °F 7.2 °F 1021.9 in Calm     42 % 0.0 in 0.0 W/m2 CLR
21:39 20.4 °F 7.4 °F 1021.9 in Calm     43 % 0.0 in 0.0 W/m2 CLR
21:44 20.2 °F 8.2 °F 1021.9 in Calm     46 % 0.0 in 0.0 W/m2 CLR
21:49 19.9 °F 8.2 °F 1021.9 in Calm     47 % 0.0 in 0.0 W/m2 CLR
21:54 19.5 °F 8.5 °F 1022.2 in Calm     49 % 0.0 in 0.0 W/m2 CLR
21:59 18.9 °F 8.6 °F 1022.2 in Calm     51 % 0.0 in 0.0 W/m2 CLR
22:04 18.4 °F 8.3 °F 1022.2 in Calm     52 % 0.0 in 0.0 W/m2 CLR
22:09 17.9 °F 8.2 °F 1022.2 in Calm     53 % 0.0 in 0.0 W/m2 CLR
22:14 17.6 °F 8.1 °F 1022.6 in Calm     54 % 0.0 in 0.0 W/m2 CLR
22:19 17.2 °F 8.1 °F 1022.6 in Calm     55 % 0.0 in 0.0 W/m2 CLR
22:24 17.0 °F 8.2 °F 1022.6 in Calm     56 % 0.0 in 0.0 W/m2 CLR
22:29 16.8 °F 8.2 °F 1022.6 in Calm     57 % 0.0 in 0.0 W/m2 CLR
22:34 16.5 °F 8.2 °F 1022.6 in Calm     58 % 0.0 in 0.0 W/m2 CLR
22:39 16.4 °F 8.1 °F 1022.6 in Calm     58 % 0.0 in 0.0 W/m2 CLR
22:44 16.2 °F 8.4 °F 1022.6 in Calm     60 % 0.0 in 0.0 W/m2 CLR
22:49 15.9 °F 8.1 °F 1022.6 in Calm     60 % 0.0 in 0.0 W/m2 CLR
22:54 15.6 °F 8.3 °F 1022.6 in Calm     62 % 0.0 in 0.0 W/m2 CLR
22:59 15.2 °F 8.2 °F 1022.6 in Calm     63 % 0.0 in 0.0 W/m2 CLR
23:04 14.9 °F 8.1 °F 1022.6 in Calm     64 % 0.0 in 0.0 W/m2 CLR
23:09 14.8 °F 8.1 °F 1022.6 in Calm     64 % 0.0 in 0.0 W/m2 CLR
23:14 14.7 °F 8.2 °F 1022.9 in Calm     65 % 0.0 in 0.0 W/m2 CLR
23:19 14.6 °F 8.1 °F 1022.9 in Calm     65 % 0.0 in 0.0 W/m2 CLR
23:24 14.4 °F 7.9 °F 1022.9 in Calm     65 % 0.0 in 0.0 W/m2 CLR
23:29 14.3 °F 8.0 °F 1022.9 in Calm     66 % 0.0 in 0.0 W/m2 CLR
23:35 14.2 °F 8.1 °F 1022.9 in Calm     67 % 0.0 in 0.0 W/m2 CLR
23:40 14.1 °F 8.0 °F 1022.9 in Calm     67 % 0.0 in 0.0 W/m2 CLR
23:45 13.9 °F 7.7 °F 1022.9 in Calm     66 % 0.0 in 0.0 W/m2 CLR
23:50 13.9 °F 7.7 °F 1022.9 in Calm     66 % 0.0 in 0.0 W/m2 CLR
23:55 13.9 °F 7.8 °F 1022.9 in Calm     67 % 0.0 in 0.0 W/m2 CLR
Lo Temps de Massalio
Compliments of Weather Underground - 1.25 mb